TimeMDT,TemperatureF,Dew PointF,Humidity,Sea Level PressureIn,VisibilityMPH,Wind Direction,Wind SpeedMPH,Gust SpeedMPH,PrecipitationIn,Events,Conditions,WindDirDegrees,DateUTC
12:53 AM,57.0,37.0,47,29.93,10.0,WNW,6.9,-,N/A,,Clear,300,2013-09-02 06:53:00
1:53 AM,57.0,37.0,47,29.91,10.0,NW,4.6,-,N/A,,Clear,310,2013-09-02 07:53:00
2:53 AM,55.0,36.0,49,29.91,10.0,West,3.5,-,N/A,,Clear,280,2013-09-02 08:53:00
3:53 AM,48.0,35.1,61,29.93,10.0,SW,3.5,-,N/A,,Clear,220,2013-09-02 09:53:00
4:53 AM,50.0,36.0,59,29.92,10.0,NNW,4.6,-,N/A,,Clear,330,2013-09-02 10:53:00
5:53 AM,51.1,36.0,56,29.92,10.0,NNW,6.9,-,N/A,,Clear,330,2013-09-02 11:53:00
6:53 AM,48.9,36.0,61,29.93,10.0,NNW,3.5,-,N/A,,Clear,340,2013-09-02 12:53:00
7:53 AM,51.1,37.0,59,29.95,10.0,NW,4.6,-,N/A,,Clear,310,2013-09-02 13:53:00
8:53 AM,61.0,37.9,42,29.93,10.0,NW,6.9,-,N/A,,Clear,310,2013-09-02 14:53:00
9:53 AM,66.0,37.9,36,29.91,10.0,West,3.5,-,N/A,,Clear,270,2013-09-02 15:53:00
10:53 AM,71.1,37.9,30,29.90,10.0,Calm,Calm,-,N/A,,Clear,0,2013-09-02 16:53:00
11:53 AM,79.0,37.0,22,29.88,10.0,Calm,Calm,-,N/A,,Clear,0,2013-09-02 17:53:00
12:53 PM,82.9,37.0,19,29.87,10.0,ESE,4.6,-,N/A,,Clear,120,2013-09-02 18:53:00
1:53 PM,88.0,36.0,16,29.84,10.0,WNW,10.4,-,N/A,,Clear,290,2013-09-02 19:53:00
2:53 PM,87.1,41.0,20,29.84,10.0,SSW,24.2,38.0,N/A,,Clear,200,2013-09-02 20:53:00
3:53 PM,82.0,45.0,27,29.89,10.0,SW,27.6,35.7,N/A,,Clear,220,2013-09-02 21:53:00
4:53 PM,82.0,46.0,28,29.89,10.0,SW,16.1,23.0,N/A,,Clear,220,2013-09-02 22:53:00
5:53 PM,80.1,46.9,31,29.90,10.0,WSW,17.3,-,N/A,,Clear,240,2013-09-02 23:53:00
6:53 PM,79.0,48.0,34,29.91,10.0,SW,11.5,-,N/A,,Mostly Cloudy,230,2013-09-03 00:53:00
7:53 PM,75.0,48.9,40,29.92,10.0,SW,13.8,-,N/A,,Mostly Cloudy,220,2013-09-03 01:53:00
8:53 PM,75.0,48.9,40,29.90,10.0,SW,15.0,-,N/A,,Overcast,220,2013-09-03 02:53:00
9:53 PM,73.9,50.0,43,29.90,10.0,SW,13.8,-,N/A,,Clear,220,2013-09-03 03:53:00
10:53 PM,66.0,46.9,50,29.91,10.0,South,6.9,-,N/A,,Clear,180,2013-09-03 04:53:00
11:53 PM,72.0,50.0,46,29.89,10.0,SSE,3.5,-,N/A,,Clear,160,2013-09-03 05:53:00